Погода Софийский Прииск

Погода Софийский Прииск : погода сейчас, прогноз погоды и архив. Всё, что Вы хотите узнать о погоде Софийский Прииск!

Поиск расширенной информации на нашем сайте:

Другие новости

Новости СМИ2

Главная страница сайта

Новости сайта

03.07.2017

Напоминаем, что на нашем специализированном сайте Метеоцентр.Азия вы можете получить высокодетализированные автоматические прогнозы погоды по пунктам России, СНГ и мира в авиационном формате (включающие направление и скорость ветра, видимость, явления погоды, количество и форму облачности, нижнюю и верхнюю границу облачности).

Рекомендуем: Сервис ремонт компьютеров сидорово улучшит качество работы ПК.

Погода Софийский Прииск - сегодня

Время (UTC), дата Ветер
(°,м/с) 
Видим.   Явления Облачность Т
(°С)
Тd
(°С)
f(%) Тe
(°С)
Pmin
(гПа)
dP
(гПа)
Po
(мм)
O2
(г/м3)
Тmin Tmax R s Состояние
почвы
03 23.07.17 010 (С) 20000 м  {ливн. осадки}  9/9 1000 м кучево-дожд. 
[Cb cap]
+16.5 +11.5 72 +24  999.8  -0.9  675  254           
06 23.07.17 тихо ()   20000 м  в посл. час ливневой дождь  9/9 1000 м кучево-дожд. 
[Cb cap]
+16.6 +11.5 72 +17  998.4  -1.3             
09 23.07.17 тихо ()   20000 м    9/8 1000 м кучево-дожд., верхняя 
[Cb cap|Ci fib]
+15.5 +12.9 84 +16  998.2  -0.5      +18.2     
12 23.07.17 тихо ()   20000 м    8/8 1000 м кучево-дожд. 
[Cb cap]
+12 +11.3 95 +12  999.5  -0.1             
15 23.07.17 100 (В) 20000 м    9/9 1000 м кучево-дожд. 
[Cb cap]
+20.1 +9.9 52 +20  999  -0.9             
18 23.07.17 090 (В) 20000 м    9/9 1000 м кучево-дожд. 
[Cb cap]
+9.7 +8.9 95 +11  998.4  -0.9             
21 23.07.17 тихо ()   20000 м  туман поземный  10/10 1000 м кучево-дожд. 
[Cb cap]
+10.5 +9.6 94 +11  997.9  -0.2    +9.7        мокрая 
00 24.07.17 110 (В) 20000 м  {ливн. осадки}  10/10 1000 м кучево-дожд. 
[Cb cap]
+16.1 +10.4 69 +17  995.6  -0.1             
03 24.07.17 180 (Ю) 20000 м  слаб. ливневой дождь  10/10 600 м кучево-дожд. 
[Cb cap]
+13.7 +12.4 92 +15  996.2  -0.2             
06 24.07.17 320 (СЗ) 20000 м  {ливн. осадки}  10/10 600 м кучево-дожд. 
[Cb cap]
+15.1 +12.8 86 +16  995.1  -0.5             
09 24.07.17 160 (Ю) 20000 м  в посл. час ливневой дождь  10/10 600 м кучево-дожд. 
[Cb cap]
+12.8 +11.3 91 +14  996.5  0.5      +17     
12 24.07.17 070 (В) 20000 м  в посл. час ливневой дождь  10/10 600 м кучево-дожд. 
[Cb cap]
+11.5 +10.9 96 +13  997.2  0.2             
15 24.07.17 170 (Ю) 20000 м    10/10 600 м кучево-дожд. 
[Cb cap]
+9 +8.5 97 +10  998.2             
18 24.07.17 тихо ()   20000 м    10/10 600 м кучево-дожд. 
[Cb cap]
+7.6 +7 96 +8  998.7  -0.1             
21 24.07.17 тихо ()   20000 м  слаб. ливневой дождь  10/10 600 м кучево-дожд. 
[Cb cap]
+8.9 +8.4 97 +9  998.5  0.2    +7.4      мокрая 
00 25.07.17 230 (ЮЗ) 20000 м  {ливн. осадки}  10/8 600 м кучево-дожд., средняя, верхняя 
[Cb cap|Ac trans|Ci fib]
+13.9 +11.3 84 +15  996.9  0.4             
03 25.07.17 080 (В) 10 км    10/10 600 м кучево-дожд. 
[Cb cap]
+14.7 +9.9 73 +15  997.8  0.9             
06 25.07.17 300 (СЗ) 20000 м  слаб. ливневой дождь  10/9 600 м кучево-дожд., верхняя 
[Cb cap|Ci fib]
+13.5 +11.5 88 +14  998.7  0.6             
09 25.07.17 030 (СВ) 10 км  ливневой дождь  10/10 600 м кучево-дожд. 
[Cb cap]
+12.9 +11.6 92 +14  1000.6  1.5      +15.9     
12 25.07.17 060 (СВ) 20000 м  {ливн. осадки}  9/9 600 м кучево-дожд. 
[Cb cap]
+11.2 +9.6 90 +14  1003.6  676  260           
15 25.07.17 тихо ()   20000 м    10/8 600 м кучево-дожд., верхняя 
[Cb cap|Ci fib]
+8.8 +8 95 +9  1005  0.5  677  263           
18 25.07.17 060 (СВ) 20000 м    10/6 600 м кучево-дожд., средняя, верхняя 
[Cb cap|Ac lent|Ci fib]
+6.5 +5.8 95 +7  1006.5  0.3  677  265           
21 25.07.17 030 (СВ) 1000 м  туман  ?/?  
+7 +6.2 95 +8  1007.3  678  265  +5.4      мокрая 
00 26.07.17 270 (З) 20000 м  {туман}  8/6 1000 м верхняя 
[Cu hum|Ci fib]
+13.9 +9.6 75 +18  1004.9  0.3  678  258           
03 26.07.17 310 (СЗ) 20000 м    9/8 1000 м кучево-дожд., верхняя 
[Cb cap|Ci fib]
+17.1 +6.8 51 +18  1003.4  -0.4  678  256           
Время (UTC), дата Ветер
(°,м/с) 
Видим.   Явления Облачность Т
(°С)
Тd
(°С)
f(%) Тe
(°С)
Pmin
(гПа)
dP
(гПа)
Po
(мм)
O2
(г/м3)
Тmin Tmax R s Состояние
почвы

Для получения пояснительной информации подведите курсор к названию столбца.

ПОГОДА Софийский Прииск - архив

Всё, что Вы хотите узнать о погоде Софийский Прииск - удобно и подробно!

Выберите нужную дату (начиная с 1 января 2015* года) и нажмите кнопку "Найти".
Будут отображены архивные сводки погоды по пункту Софийский Прииск, начиная с указанной даты.


Отображать данные в формате CSV (для использования в таблицах Excel)


Внимание! Наш архив погоды предназначен исключительно для личного некоммерческого использования в познавательных целях. Если Вам необходимы официальные справки о состоянии погоды (для производственных, юридических, коммерческих и т.п. целей), обращайтесь в органы Росгидромета.

*Примечание: данная дата относится к архиву по метеостанциям СССР (Россия, СНГ, Балтия).
Архив по метеостанциям Зарубежной Европы и Азии (кроме Китая) хранится 10 дней, по другим регионам земного шара (Китай, Африка, Америка, Австралия, Океания) - 1 день.

Софийский Прииск - район местоположения метеостанции


Название, широта, долгота, высота метеостанции:
Софийский Прииск 52.3°ш. 134°д. 902 м над ур. моря [Российская Федерация]

Дополнительная информация

В oтличие oт бoльшинства пoгoдных сайтoв мы публикуем пoдрoбную метеoинфoрмацию в детальнoм прoфессиoнальнoм фoрмате.

Характеристики температуры и влажнoсти вoздуха измеряются на высoте 2 м в тени вдали oт зданий и деревьев.
Скoрoсть ветра измеряется на высoте 10 м (на урoвне рoста челoвека скoрoсть ветра ниже в 1.5-2 раза). Если метеoстанция нахoдится в гoрoде или в лесу, тo скoрoсть ветра занижена на 2-4 м/с пo сравнению с oткрытым местoм. Скoрoсть ветра над акватoриями крупных рек и oзёр, а также на вершинах хoлмoв на 2-5 м/с выше, чем в oбычных услoвиях.
Атмoсфернoе давление в разных тoчках местнoсти мoжет значительнo oтличаться oт давления на метеoстанции, в зависимoсти oт услoвий рельефа (при пoдъёме на 10 м давление пoнижается примернo на 1 мм рт.ст.).